This demonstration page uses our WeatherBlox Daily Observations layout. Learn more.

Hourly Observations for February 7, 2019

Temp ( °F °C ) Dew Point ( °F °C ) Humidity (%) Winds ( mph kmh ) Pressure ( in mb ) Visibility ( mi km ) Precip ( " mm )
12:15 am 00:15 Cloudy with Mist and Fog 43 6 43 6 100 100 NNE 7 11 30.03 1017 2 3.218688 0 0
12:35 am 00:35 Cloudy with Mist and Fog 43 6 43 6 100 100 NNE 8 13 30.03 1017 2 3.218688 0 0
12:55 am 00:55 Cloudy 43 6 43 6 100 100 NNE 5 7 30.03 1017 2.5 4.02336 0 0
1:15 am 01:15 Cloudy 43 6 43 6 100 100 N 3 6 30.03 1017 2.5 4.02336 0 0
1:35 am 01:35 Cloudy 43 6 43 6 100 100 NNE 3 6 30.06 1018 3 4.828032 0 0
1:55 am 01:55 Cloudy with Mist and Fog 43 6 43 6 100 100 NNE 7 11 30.06 1018 4 6.437376 0 0
2:15 am 02:15 Cloudy 43 6 43 6 100 100 NNE 7 11 30.03 1017 4 6.437376 0 0
2:35 am 02:35 Cloudy with Mist and Fog 43 6 43 6 100 100 NNE 3 6 30.06 1018 4 6.437376 0 0
2:55 am 02:55 Cloudy with Mist and Fog 43 6 43 6 100 100 NNE 6 9 30.06 1018 5 8.04672 0 0
3:15 am 03:15 Cloudy with Mist and Fog 43 6 43 6 100 100 NNE 5 7 30.06 1018 5 8.04672 0 0
3:35 am 03:35 Cloudy with Mist and Fog 43 6 43 6 100 100 NNE 5 7 30.06 1018 5 8.04672 0 0
3:55 am 03:55 Cloudy 43 6 43 6 100 100 NNE 8 13 30.06 1018 4 6.437376 0 0
4:15 am 04:15 Cloudy 41 5 41 5 100 100 NE 6 9 30.06 1018 4 6.437376 0 0
4:35 am 04:35 Cloudy 41 5 41 5 100 100 NE 8 13 30.06 1018 4 6.437376 0 0
4:55 am 04:55 Cloudy with Mist and Fog 41 5 41 5 100 100 N 5 7 30.09 1019 4 6.437376 0 0
5:15 am 05:15 Cloudy with Mist and Fog 41 5 41 5 100 100 NE 6 9 30.06 1018 4 6.437376 0 0
5:35 am 05:35 Cloudy with Mist and Fog 41 5 41 5 100 100 NE 5 7 30.06 1018 4 6.437376 0 0
5:55 am 05:55 Cloudy 41 5 41 5 100 100 Calm 30.06 1018 4 6.437376 0 0
6:15 am 06:15 Cloudy 41 5 41 5 100 100 Calm 30.06 1018 4 6.437376 0 0
6:35 am 06:35 Cloudy 41 5 41 5 100 100 Calm 30.06 1018 4 6.437376 0 0
6:55 am 06:55 Cloudy 41 5 41 5 100 100 NNE 6 9 30.09 1019 4 6.437376 0 0
7:15 am 07:15 Cloudy with Mist and Fog 41 5 41 5 100 100 NE 6 9 30.09 1019 4 6.437376 0 0
7:35 am 07:35 Cloudy with Mist and Fog 41 5 41 5 100 100 NE 3 6 30.09 1019 4 6.437376 0 0
7:55 am 07:55 Cloudy with Mist and Fog 41 5 41 5 100 100 Calm 30.09 1019 3 4.828032 0 0
8:15 am 08:15 Cloudy with Mist and Fog 41 5 41 5 100 100 Calm 30.12 1020 4 6.437376 0 0
8:35 am 08:35 Cloudy with Mist and Fog 43 6 43 6 100 100 N 5 7 30.12 1020 4 6.437376 0 0
8:55 am 08:55 Cloudy 43 6 43 6 100 100 Calm 30.12 1020 4 6.437376 0 0
9:15 am 09:15 Cloudy 43 6 43 6 100 100 E 3 6 30.12 1020 4 6.437376 0 0
9:35 am 09:35 Cloudy 45 7 43 6 93 93 Calm 30.12 1020 5 8.04672 0 0
9:55 am 09:55 Cloudy 45 7 43 6 93 93 Calm 30.12 1020 5 8.04672 0 0
10:15 am 10:15 Cloudy 45 7 45 7 100 100 ESE 6 9 30.12 1020 5 8.04672 0 0
10:35 am 10:35 Cloudy 45 7 45 7 100 100 Calm 30.09 1019 5 8.04672 0 0
10:55 am 10:55 Cloudy 46 8 45 7 93 93 Calm 30.09 1019 5 8.04672 0 0
11:15 am 11:15 Cloudy 46 8 45 7 93 93 Calm 30.09 1019 7 11.265408 0 0
11:35 am 11:35 Cloudy 48 9 45 7 87 87 Calm 30.09 1019 7 11.265408 0 0
11:55 am 11:55 Cloudy 48 9 45 7 87 87 Calm 30.12 1020 7 11.265408 0 0
12:15 pm 12:15 Cloudy 50 10 46 8 88 88 Calm 30.12 1020 7 11.265408 0 0
12:35 pm 12:35 Cloudy 50 10 46 8 88 88 Calm 30.09 1019 7 11.265408 0 0
12:55 pm 12:55 Cloudy 50 10 46 8 88 88 Calm 30.09 1019 7 11.265408 0 0
1:15 pm 13:15 Cloudy 50 10 46 8 88 88 Calm 30.03 1017 7 11.265408 0 0
1:35 pm 13:35 Cloudy 50 10 46 8 88 88 Calm 30.03 1017 7 11.265408 0 0
1:55 pm 13:55 Cloudy 52 11 46 8 82 82 Calm 30.03 1017 7 11.265408 0 0
2:15 pm 14:15 Cloudy 52 11 46 8 82 82 Calm 30.03 1017 10 16.09344 0 0
2:35 pm 14:35 Cloudy 54 12 48 9 82 82 SE 3 6 30.03 1017 10 16.09344 0 0
2:55 pm 14:55 Cloudy 54 12 48 9 82 82 SE 5 7 30 1016 10 16.09344 0 0
3:15 pm 15:15 Cloudy 54 12 48 9 82 82 S 6 9 30.03 1017 10 16.09344 0 0
3:35 pm 15:35 Cloudy 54 12 48 9 82 82 S 7 11 30 1016 10 16.09344 0 0
3:55 pm 15:55 Cloudy 54 12 48 9 82 82 SSW 5 7 30 1016 10 16.09344 0 0
4:15 pm 16:15 Cloudy 54 12 50 10 88 88 SSW 3 6 30 1016 10 16.09344 0 0
4:35 pm 16:35 Cloudy 52 11 48 9 88 88 undefined N/A 30.03 1017 10 16.09344 0 0
4:55 pm 16:55 Cloudy 52 11 48 9 88 88 SSW 5 7 30 1016 10 16.09344 0 0
5:15 pm 17:15 Cloudy 52 11 48 9 88 88 S 5 7 30 1016 10 16.09344 0 0
5:35 pm 17:35 Cloudy 52 11 50 10 94 94 S 5 7 30 1016 10 16.09344 0 0
5:55 pm 17:55 Cloudy 52 11 50 10 94 94 S 6 9 30 1016 10 16.09344 0 0
6:15 pm 18:15 Cloudy 52 11 50 10 94 94 S 7 11 30 1016 10 16.09344 0 0
6:35 pm 18:35 Cloudy 50 10 50 10 100 100 S 7 11 30 1016 10 16.09344 0 0
6:55 pm 18:55 Cloudy 50 10 50 10 100 100 SSW 5 7 30 1016 7 11.265408 0 0
7:15 pm 19:15 Cloudy 50 10 50 10 100 100 S 6 9 30 1016 7 11.265408 0 0
7:35 pm 19:35 Cloudy 50 10 50 10 100 100 S 5 7 30 1016 10 16.09344 0 0
7:55 pm 19:55 Cloudy 50 10 50 10 100 100 S 5 7 30 1016 10 16.09344 0 0
8:15 pm 20:15 Cloudy 50 10 50 10 100 100 S 8 13 30 1016 10 16.09344 0 0
8:35 pm 20:35 Cloudy 50 10 50 10 100 100 S 7 11 29.97 1015 7 11.265408 0 0
8:55 pm 20:55 Cloudy 50 10 50 10 100 100 S 7 11 29.97 1015 7 11.265408 0 0
9:15 pm 21:15 Cloudy 50 10 50 10 100 100 S 6 9 29.97 1015 4 6.437376 0 0
9:35 pm 21:35 Cloudy 48 9 48 9 100 100 Calm 30 1016 2 3.218688 0 0
9:55 pm 21:55 Cloudy 48 9 48 9 100 100 S 5 7 29.94 1014 1.5 2.414016 0 0
10:15 pm 22:15 Cloudy 48 9 48 9 100 100 S 6 9 29.94 1014 0.75 1.207008 0 0
10:35 pm 22:35 Cloudy 46 8 46 8 100 100 S 7 11 29.97 1015 0.75 1.207008 0 0
10:55 pm 22:55 Cloudy 46 8 46 8 100 100 S 5 7 29.97 1015 0.75 1.207008 0 0
11:15 pm 23:15 Cloudy 46 8 46 8 100 100 SSE 5 7 29.97 1015 0.5 0.804672 0 0
11:35 pm 23:35 Cloudy with Fog 46 8 46 8 100 100 S 6 9 29.97 1015 0.5 0.804672 0 0
11:55 pm 23:55 Cloudy 46 8 46 8 100 100 SSE 5 7 29.97 1015 0.5 0.804672 0 0

Powered by AerisWeather